This demonstration page uses our WeatherBlox Daily Observations layout. Learn more.

Left ArrowRight Arrow

Hourly Observations for February 19, 2022

Temp ( °F °C ) Dew Point ( °F °C ) Humidity (%) Winds ( mph kmh ) Pressure ( in mb ) Visibility ( mi km ) Precip ( " mm )
12:53 am 00:53 Clear 43 6.1 35 1.7 74 74 Calm 30.20 1023 10 16 0.00 0.00
1:53 am 01:53 Clear 42 5.6 35 1.7 76 76 Calm 30.20 1023 10 16 0.00 0.00
2:53 am 02:53 Clear 40 4.4 34 1.1 79 79 Calm 30.19 1022 10 16 0.00 0.00
3:53 am 03:53 Clear 38 3.3 32 0 79 79 NNE 3 6 30.18 1022 10 16 0.00 0.00
4:53 am 04:53 Clear 38 3.3 33 0.6 83 83 Calm 30.18 1022 10 16 0.00 0.00
5:53 am 05:53 Clear 36 2.2 32 0 86 86 Calm 30.18 1022 10 16 0.00 0.00
6:53 am 06:53 Clear 37 2.8 32 0 82 82 Calm 30.18 1022 10 16 0.00 0.00
7:53 am 07:53 Sunny 39 3.9 33 0.6 79 79 Calm 30.19 1022 10 16 0.00 0.00
8:53 am 08:53 Sunny 48 8.9 37 2.8 66 66 Calm 30.18 1022 10 16 0.00 0.00
9:53 am 09:53 Sunny 55 12.8 39 3.9 55 55 Calm 30.17 1022 10 16 0.00 0.00
10:53 am 10:53 Sunny 61 16.1 39 3.9 44 44 Calm 30.16 1021 10 16 0.00 0.00
11:53 am 11:53 Sunny 64 17.8 37 2.8 37 37 Calm 30.13 1020 10 16 0.00 0.00
12:53 pm 12:53 Sunny 69 20.6 36 2.2 30 30 VRB 3 6 30.10 1019 10 16 0.00 0.00
1:53 pm 13:53 Sunny 70 21.1 34 1.1 27 27 SSE 3 6 30.06 1018 10 16 0.00 0.00
2:53 pm 14:53 Sunny 71 21.7 33 0.6 25 25 VRB 3 6 30.03 1017 10 16 0.00 0.00
3:53 pm 15:53 Sunny 72 22.2 34 1.1 25 25 S 6 9 30.02 1017 10 16 0.00 0.00
4:53 pm 16:53 Sunny 71 21.7 34 1.1 26 26 S 6 9 30.00 1016 10 16 0.00 0.00
5:53 pm 17:53 Clear 62 16.7 37 2.8 40 40 S 5 7 29.99 1016 10 16 0.00 0.00
6:53 pm 18:53 Clear 61 16.1 35 1.7 38 38 SSE 3 6 30.00 1016 10 16 0.00 0.00
7:53 pm 19:53 Clear 56 13.3 37 2.8 49 49 Calm 30.00 1016 10 16 0.00 0.00
8:53 pm 20:53 Clear 53 11.7 37 2.8 55 55 N 5 7 30.01 1016 10 16 0.00 0.00
9:53 pm 21:53 Clear 50 10 35 1.7 57 57 Calm 30.02 1017 10 16 0.00 0.00
10:53 pm 22:53 Clear 47 8.3 36 2.2 66 66 Calm 30.02 1017 10 16 0.00 0.00
11:53 pm 23:53 Clear 47 8.3 36 2.2 66 66 Calm 30.01 1016 10 16 0.00 0.00

Powered by AerisWeather